CW3202 Weather Reports


Display with metric or nautical units.
time (UTC)temp
F
wind
direction
speed
MPH
gust
MPH
rain 1hr
in
rain 24hr
in
rain mn
in
humidity
%
barometer
mb
20260903184125 57 360 5.0 6.0 0.00 0.00 0.72 95 1009.1
20260903183625 57 360 2.0 6.0 0.00 0.00 0.72 94 1009.0
20260903183124 57 360 6.0 6.0 0.00 0.00 0.72 95 1009.0
20260903182624 56 360 2.0 4.0 0.00 0.00 0.72 95 1009.0
20260903182124 56 360 2.0 5.0 0.00 0.00 0.72 95 1009.0
20260903181625 57 360 3.0 6.0 0.00 0.00 0.72 95 1009.0
20260903181124 57 360 5.0 6.0 0.00 0.00 0.72 95 1009.0
20260903180624 57 360 6.0 10.0 0.00 0.00 0.72 96 1008.9
20260903180125 57 360 5.0 10.0 0.00 0.00 0.72 97 1009.0
20260903175624 57 360 2.0 6.0 0.00 0.00 0.72 97 1008.9
20260903175124 57 360 4.0 5.0 0.00 0.00 0.72 97 1008.8
20260903174624 57 360 3.0 8.0 0.00 0.00 0.72 97 1008.8
20260903173924 56 360 2.0 8.0 0.00 0.00 0.72 97 1008.6
20260903173424 56 360 6.0 6.0 0.00 0.00 0.72 97 1008.6
20260903172924 56 42 5.0 7.0 0.00 0.00 0.72 97 1008.6
20260903172224 56 10 4.0 7.0 0.00 0.00 0.72 98 1008.5
20260903171524 56 26 3.0 4.0 0.00 0.00 0.72 99 1008.7
20260903171025 56 48 3.0 4.0 0.00 0.00 0.72 99 1008.6
20260903170524 55 17 2.0 4.0 0.00 0.00 0.72 99 1008.6
20260903165824 55 34 3.0 4.0 0.00 0.00 0.72 99 1008.5
20260903165324 55 42 3.0 4.0 0.00 0.00 0.72 99 1008.7
20260903164825 54 121 1.0 1.0 0.00 0.00 0.72 99 1008.6
20260903164324 54 121 0.0 2.0 0.00 0.00 0.72 98 1008.7
20260903163825 54 121 0.0 3.0 0.00 0.00 0.71 98 1008.5
20260903163325 54 121 0.0 4.0 0.00 0.00 0.67 98 1008.7
20260903162824 55 30 1.0 6.0 0.00 0.00 0.59 98 1008.5
20260903162325 55 32 3.0 8.0 0.00 0.00 0.52 98 1008.6
20260903161824 55 35 5.0 8.0 0.00 0.00 0.47 99 1008.5
20260903161325 55 17 7.0 7.0 0.00 0.00 0.46 99 1008.6
20260903160825 55 31 3.0 5.0 0.00 0.00 0.45 99 1008.7
20260903160124 55 24 3.0 4.0 0.00 0.00 0.45 99 1008.6
20260903155624 54 36 3.0 3.0 0.00 0.00 0.45 99 1008.6
20260903155124 54 324 2.0 2.0 0.00 0.00 0.45 99 1008.6
20260903154425 55 324 1.0 1.0 0.00 0.00 0.44 99 1008.7
20260903153724 54 324 0.0 2.0 0.00 0.00 0.43 99 1008.6
20260903153224 54 324 1.0 2.0 0.00 0.00 0.43 99 1008.5
20260903152724 54 324 0.0 1.0 0.00 0.00 0.43 99 1008.5
20260903152224 54 304 1.0 2.0 0.00 0.00 0.43 99 1008.5
20260903151525 54 304 0.0 2.0 0.00 0.00 0.43 99 1008.4
20260903151025 54 42 0.0 2.0 0.00 0.00 0.42 99 1008.3
20260903150525 54 41 2.0 2.0 0.00 0.00 0.42 99 1008.4
20260903150024 54 42 2.0 2.0 0.00 0.00 0.42 99 1008.4
20260903145524 54 42 0.0 1.0 0.00 0.00 0.42 99 1008.5
20260903145025 54 41 1.0 1.0 0.00 0.00 0.42 98 1008.4
20260903144524 54 41 0.0 1.0 0.00 0.00 0.42 98 1008.4
20260903144024 54 41 0.0 1.0 0.00 0.00 0.42 98 1008.3
20260903143125 54 41 1.0 2.0 0.00 0.00 0.42 98 1008.3
20260903142624 54 41 1.0 2.0 0.00 0.00 0.42 98 1008.2
20260903141924 54 46 0.0 2.0 0.00 0.00 0.42 98 1008.1
20260903141425 54 46 2.0 3.0 0.00 0.00 0.41 98 1008.1
20260903140924 54 38 2.0 3.0 0.00 0.00 0.41 98 1008.1
20260903140424 54 64 2.0 3.0 0.00 0.00 0.41 98 1008.1
20260903135725 54 69 1.0 2.0 0.00 0.00 0.40 98 1008.1
20260903135225 54 69 2.0 2.0 0.00 0.00 0.40 98 1008.1
20260903134724 54 59 1.0 8.0 0.00 0.00 0.40 98 1008.0
20260903134024 54 44 3.0 8.0 0.00 0.00 0.40 98 1007.8
20260903133324 54 34 3.0 5.0 0.00 0.00 0.38 98 1007.8
20260903132824 54 73 3.0 5.0 0.00 0.00 0.37 98 1007.9
20260903132325 54 53 4.0 7.0 0.00 0.00 0.36 98 1007.9
20260903131825 54 30 4.0 7.0 0.00 0.00 0.36 98 1007.9
20260903131324 54 34 2.0 5.0 0.00 0.00 0.36 98 1007.7
20260903130825 54 42 4.0 5.0 0.00 0.00 0.36 98 1007.7
20260903130125 54 27 4.0 5.0 0.00 0.00 0.35 98 1007.7
20260903125625 54 32 5.0 5.0 0.00 0.00 0.35 98 1007.6
20260903124924 54 29 3.0 5.0 0.00 0.00 0.35 98 1007.7
20260903124425 54 34 3.0 7.0 0.00 0.00 0.34 98 1007.7
20260903123925 54 54 2.0 7.0 0.00 0.00 0.33 98 1007.8
20260903123425 54 40 2.0 5.0 0.00 0.00 0.32 98 1007.7
20260903122925 54 24 5.0 6.0 0.00 0.00 0.30 98 1007.6
20260903122424 54 53 3.0 6.0 0.00 0.00 0.28 98 1007.8
20260903121924 54 44 3.0 4.0 0.00 0.00 0.27 98 1007.8
20260903121224 54 63 0.0 4.0 0.00 0.00 0.26 98 1007.7
20260903120725 54 46 3.0 4.0 0.00 0.00 0.26 98 1007.7
20260903120224 54 38 2.0 4.0 0.00 0.00 0.26 98 1007.8
20260903115724 54 32 2.0 3.0 0.00 0.00 0.26 98 1007.8
20260903115224 54 34 2.0 3.0 0.00 0.00 0.26 98 1007.8
20260903114725 54 34 2.0 2.0 0.00 0.00 0.26 98 1007.7
20260903114224 54 34 1.0 4.0 0.00 0.00 0.26 98 1007.6
20260903113724 54 33 2.0 4.0 0.00 0.00 0.26 98 1007.6
20260903113224 54 52 2.0 2.0 0.00 0.00 0.25 98 1007.6
20260903112724 54 52 2.0 3.0 0.00 0.00 0.25 98 1007.6
20260903112225 54 49 1.0 3.0 0.00 0.00 0.25 98 1007.6
20260903111724 54 52 2.0 5.0 0.00 0.00 0.25 98 1007.6
20260903111225 54 30 2.0 5.0 0.00 0.00 0.25 98 1007.6
20260903110725 54 20 2.0 4.0 0.00 0.00 0.25 98 1007.6
20260903110224 54 36 1.0 4.0 0.00 0.00 0.25 98 1007.5
20260903105725 54 20 4.0 5.0 0.00 0.00 0.24 98 1007.6
20260903105225 54 32 3.0 5.0 0.00 0.00 0.24 98 1007.6
20260903104724 54 17 2.0 3.0 0.00 0.00 0.23 98 1007.6
20260903104224 54 31 2.0 2.0 0.00 0.00 0.23 98 1007.6
20260903103724 54 26 1.0 7.0 0.00 0.00 0.22 98 1007.7
20260903103224 54 26 2.0 7.0 0.00 0.00 0.21 97 1007.7
20260903102725 54 15 7.0 7.0 0.00 0.00 0.19 97 1007.7
20260903102225 54 40 5.0 5.0 0.00 0.00 0.17 97 1007.7
20260903101724 54 51 4.0 4.0 0.00 0.00 0.14 98 1007.8
20260903100825 55 63 3.0 4.0 0.00 0.00 0.10 97 1007.7
20260903100324 55 54 3.0 4.0 0.00 0.00 0.08 97 1007.8
20260903095824 55 63 4.0 4.0 0.00 0.00 0.07 97 1007.7
20260903095325 55 43 3.0 4.0 0.00 0.00 0.06 97 1007.7
20260903094024 55 65 3.0 5.0 0.00 0.00 0.06 97 1007.6
20260903093324 55 49 3.0 5.0 0.00 0.00 0.05 97 1007.7
20260903092825 55 49 5.0 5.0 0.00 0.00 0.04 97 1007.7
20260903092324 55 16 2.0 4.0 0.00 0.00 0.04 97 1007.8
20260903091624 55 42 3.0 5.0 0.00 0.00 0.04 97 1007.8
20260903091124 55 42 3.0 5.0 0.00 0.00 0.04 97 1007.8
20260903090624 55 28 4.0 7.0 0.00 0.00 0.04 97 1007.8
20260903090124 55 59 2.0 7.0 0.00 0.00 0.04 97 1007.8
20260903085624 55 49 4.0 6.0 0.00 0.00 0.04 97 1007.8
20260903084924 55 40 3.0 4.0 0.00 0.00 0.02 96 1007.9
20260903084425 55 52 3.0 5.0 0.00 0.00 0.02 96 1007.8
20260903083924 55 58 3.0 5.0 0.00 0.00 0.01 96 1007.9
20260903083425 55 50 2.0 4.0 0.00 0.00 0.00 96 1007.9
20260903082924 55 40 3.0 4.0 0.00 0.00 0.00 96 1007.9
20260903082225 55 44 3.0 7.0 0.00 0.00 0.00 96 1007.8
20260903081725 55 47 3.0 7.0 0.00 0.00 0.00 96 1007.9
20260903081224 55 82 7.0 7.0 0.00 0.00 0.00 97 1007.9
20260903080725 54 50 2.0 5.0 0.00 0.00 0.00 97 1007.9
20260903080225 54 71 2.0 6.0 0.00 0.00 0.00 97 1007.9
20260903075525 54 57 3.0 6.0 0.00 0.00 0.00 97 1007.9
20260903075024 54 42 3.0 6.0 0.00 0.00 0.00 97 1007.9
20260903074527 54 47 3.0 6.0 0.00 0.00 0.00 97 1007.8
20260903074025 54 42 4.0 7.0 0.00 0.00 0.00 97 1007.7
20260903073325 54 40 3.0 7.0 0.00 0.00 0.00 97 1007.8
20260903072625 54 13 7.0 7.0 0.00 0.00 0.00 98 1007.8
20260903072125 53 25 5.0 5.0 0.00 0.00 0.00 98 1007.9
20260903071624 53 17 1.0 4.0 0.00 0.00 0.00 98 1007.9
20260903070924 53 11 3.0 4.0 0.00 0.00 0.00 98 1007.8
20260903070424 53 5 3.0 4.0 0.00 0.00 0.00 98 1007.9
20260903065924 53 344 3.0 4.0 0.00 0.00 0.25 98 1007.9
20260903065424 53 348 4.0 5.0 0.00 0.00 0.25 98 1007.8
20260903064925 53 5 3.0 5.0 0.00 0.00 0.25 98 1007.9
20260903064424 53 360 5.0 5.0 0.00 0.00 0.25 99 1007.9
20260903063925 53 360 2.0 3.0 0.00 0.00 0.25 99 1007.9
20260903063425 52 360 1.0 3.0 0.00 0.00 0.25 99 1008.0
20260903062924 52 360 3.0 3.0 0.00 0.00 0.25 99 1007.9
20260903062424 52 360 2.0 3.0 0.00 0.00 0.25 99 1008.0
20260903061925 52 360 3.0 3.0 0.00 0.00 0.25 99 1008.0
20260903061425 52 360 3.0 3.0 0.00 0.00 0.25 99 1007.9
20260903060724 51 360 1.0 1.0 0.00 0.00 0.25 99 1008.0
20260903060225 51 360 0.0 1.0 0.00 0.00 0.25 98 1008.0
20260903055724 51 360 0.0 2.0 0.00 0.00 0.25 98 1008.0
20260903055224 51 360 1.0 2.0 0.00 0.00 0.25 98 1008.0
20260903054724 51 360 2.0 2.0 0.00 0.00 0.25 98 1007.9
20260903054024 51 360 1.0 2.0 0.00 0.00 0.25 98 1008.0
20260903053325 51 360 2.0 2.0 0.00 0.00 0.25 98 1008.1
20260903052824 51 360 0.0 2.0 0.00 0.00 0.25 98 1008.1
20260903052325 51 360 0.0 2.0 0.00 0.00 0.25 98 1008.0
20260903051625 51 360 0.0 1.0 0.00 0.00 0.25 98 1008.0
20260903051124 51 360 0.0 1.0 0.00 0.00 0.25 98 1008.1
20260903050624 52 360 1.0 2.0 0.00 0.00 0.25 98 1008.1
20260903050124 52 360 1.0 3.0 0.00 0.00 0.25 98 1008.1
20260903045624 52 360 2.0 3.0 0.00 0.00 0.25 98 1008.0
20260903045124 51 360 3.0 3.0 0.00 0.00 0.25 98 1008.0
20260903044624 51 360 1.0 1.0 0.00 0.00 0.25 98 1008.0
20260903044124 51 360 0.0 3.0 0.00 0.00 0.25 97 1008.0
20260903043425 51 158 2.0 3.0 0.00 0.00 0.25 97 1007.9
20260903042724 51 360 1.0 2.0 0.00 0.00 0.25 97 1007.8
20260903042224 51 360 1.0 3.0 0.00 0.00 0.25 96 1007.8
20260903041524 51 360 1.0 3.0 0.00 0.00 0.25 97 1007.7
20260903041025 51 159 1.0 4.0 0.00 0.00 0.25 96 1007.6
20260903040524 52 360 2.0 4.0 0.00 0.00 0.25 95 1007.6
20260903040025 52 360 2.0 2.0 0.00 0.00 0.25 95 1007.6
20260903035525 53 360 0.0 1.0 0.00 0.00 0.25 96 1007.5
20260903035024 53 360 0.0 1.0 0.00 0.00 0.25 96 1007.3
20260903034524 53 159 0.0 2.0 0.00 0.00 0.25 95 1007.3
20260903034024 53 159 0.0 2.0 0.00 0.00 0.25 95 1007.3
20260903033324 54 159 1.0 1.0 0.00 0.00 0.25 93 1007.1
20260903032824 54 159 0.0 2.0 0.00 0.00 0.25 93 1007.0
20260903032125 54 159 1.0 4.0 0.00 0.00 0.25 93 1007.0
20260903031425 55 159 2.0 4.0 0.00 0.00 0.25 91 1007.0
20260903030924 56 159 2.0 2.0 0.00 0.00 0.25 91 1007.0
20260903030025 56 159 0.0 2.0 0.00 0.00 0.25 90 1007.0
20260903025524 57 159 0.0 1.0 0.00 0.00 0.25 88 1006.8
20260903025024 57 159 0.0 1.0 0.00 0.00 0.25 87 1006.7
20260903024524 58 160 1.0 2.0 0.00 0.00 0.25 86 1006.7
20260903023825 58 160 0.0 2.0 0.00 0.00 0.25 86 1006.8
20260903023325 58 145 1.0 2.0 0.00 0.00 0.25 86 1006.8
20260903022624 59 145 0.0 3.0 0.00 0.00 0.25 86 1006.8
20260903022125 59 146 0.0 3.0 0.00 0.00 0.25 87 1006.6
20260903021624 60 146 0.0 1.0 0.00 0.00 0.25 85 1006.7
20260903021125 60 146 1.0 1.0 0.00 0.00 0.25 84 1006.6
20260903020624 60 146 0.0 2.0 0.00 0.00 0.25 83 1006.6
20260903020125 60 146 0.0 2.0 0.00 0.00 0.25 82 1006.6
20260903015624 61 165 0.0 2.0 0.00 0.00 0.25 81 1006.6
20260903015124 61 158 1.0 2.0 0.00 0.00 0.25 82 1006.5
20260903014625 61 158 1.0 1.0 0.00 0.00 0.25 83 1006.4
20260903014124 62 157 0.0 1.0 0.00 0.00 0.25 82 1006.5
20260903013624 62 157 0.0 1.0 0.00 0.00 0.25 81 1006.4
20260903013124 62 158 0.0 1.0 0.00 0.00 0.25 81 1006.4
20260903012624 62 157 1.0 2.0 0.00 0.00 0.25 82 1006.4
20260903012124 62 157 0.0 2.0 0.00 0.00 0.25 81 1006.3
20260903011624 62 158 0.0 2.0 0.00 0.00 0.25 83 1006.3
20260903010724 62 158 0.0 4.0 0.00 0.00 0.25 82 1006.2
20260903010225 62 158 1.0 6.0 0.00 0.00 0.25 81 1006.3
20260903005724 62 165 4.0 6.0 0.00 0.00 0.25 79 1006.2
20260903005225 63 184 1.0 4.0 0.00 0.00 0.25 81 1006.2
20260903004725 63 190 3.0 3.0 0.00 0.00 0.25 80 1006.1
20260903004224 63 360 2.0 3.0 0.00 0.00 0.25 80 1006.0
20260903003724 63 155 1.0 2.0 0.00 0.00 0.25 81 1006.0
20260903003225 63 171 1.0 3.0 0.00 0.00 0.25 80 1006.0
20260903002724 63 202 2.0 3.0 0.00 0.00 0.25 80 1005.9
20260903002224 64 150 3.0 5.0 0.00 0.00 0.25 79 1005.9
20260903001524 65 173 5.0 5.0 0.00 0.00 0.25 78 1005.9
20260903001024 64 144 4.0 4.0 0.00 0.00 0.25 79 1005.9
20260903000525 64 165 0.0 3.0 0.00 0.00 0.25 80 1005.8
20260903000024 64 157 2.0 3.0 0.00 0.00 0.25 79 1005.7
20260902235324 64 140 1.0 3.0 0.00 0.00 0.25 80 1005.8
20260902234825 64 168 2.0 2.0 0.00 0.00 0.25 80 1005.7
20260902234324 64 160 1.0 3.0 0.00 0.00 0.25 83 1005.8
20260902233624 64 141 3.0 4.0 0.00 0.00 0.25 86 1005.8
20260902233125 63 169 4.0 4.0 0.00 0.00 0.25 86 1005.8
20260902232624 63 180 1.0 4.0 0.00 0.00 0.25 85 1005.7
20260902232125 62 163 4.0 4.0 0.00 0.00 0.25 88 1005.7
20260902231626 62 147 0.0 5.0 0.00 0.00 0.25 89 1005.7
20260902231124 62 164 2.0 5.0 0.00 0.00 0.25 90 1005.7
20260902230424 62 113 1.0 10.0 0.00 0.00 0.25 90 1005.6
20260902225924 62 144 2.0 10.0 0.00 0.00 0.25 88 1005.6
20260902225424 62 111 2.0 8.0 0.00 0.00 0.25 88 1005.6
20260902224524 63 174 5.0 7.0 0.00 0.00 0.25 89 1005.3
20260902224025 62 178 1.0 2.0 0.00 0.00 0.25 93 1005.1
20260902223524 62 146 2.0 3.0 0.00 0.00 0.25 96 1005.1
20260902223024 62 333 1.0 3.0 0.00 0.00 0.25 96 1005.0
20260902222524 61 132 1.0 3.0 0.00 0.00 0.25 98 1005.1
20260902222024 60 360 3.0 3.0 0.00 0.00 0.25 97 1005.1
20260902221524 60 360 2.0 6.0 0.00 0.00 0.25 97 1005.1
20260902221024 59 164 1.0 6.0 0.00 0.00 0.25 98 1005.0
20260902215924 58 173 1.0 2.0 0.00 0.00 0.25 97 1005.1
20260902215425 58 161 2.0 2.0 0.00 0.00 0.25 97 1005.0
20260902214925 58 156 1.0 5.0 0.00 0.00 0.24 97 1005.0
20260902214425 58 155 1.0 7.0 0.00 0.00 0.22 95 1005.1
20260902213925 59 190 3.0 9.0 0.00 0.00 0.04 96 1005.2
20260902213424 59 74 4.0 12.0 0.00 0.00 0.01 96 1004.4
20260902212925 59 93 4.0 12.0 0.00 0.00 0.01 95 1004.3
20260902212425 59 85 7.0 12.0 0.00 0.00 0.01 95 1004.3
20260902211925 59 84 12.0 12.0 0.00 0.00 0.01 96 1004.3
20260902211425 59 57 7.0 9.0 0.00 0.00 0.01 97 1004.3
20260902210924 59 74 5.0 13.0 0.00 0.00 0.01 97 1004.2
20260902210225 58 21 8.0 13.0 0.00 0.00 0.01 96 1004.1
20260902205724 58 65 4.0 7.0 0.00 0.00 0.01 96 1004.0
20260902205024 58 43 4.0 7.0 0.00 0.00 0.01 96 1004.1
20260902204524 58 45 6.0 7.0 0.00 0.00 0.01 96 1003.9
20260902204024 58 81 7.0 7.0 0.00 0.00 0.01 96 1003.8
20260902203524 58 28 6.0 9.0 0.00 0.00 0.01 95 1003.6
20260902203025 58 76 5.0 9.0 0.00 0.00 0.01 95 1003.6
20260902202525 58 44 5.0 9.0 0.00 0.00 0.01 96 1003.6
20260902202025 58 83 7.0 7.0 0.00 0.00 0.01 96 1003.5
20260902201525 58 56 3.0 13.0 0.00 0.00 0.01 95 1003.7
20260902201024 58 26 3.0 13.0 0.00 0.00 0.01 95 1003.7
20260902200524 58 77 13.0 13.0 0.00 0.00 0.01 95 1003.6
20260902200024 58 5 10.0 11.0 0.00 0.00 0.01 95 1003.8
20260902195524 58 89 7.0 11.0 0.00 0.00 0.01 94 1003.8
20260902195024 58 86 8.0 11.0 0.00 0.00 0.00 94 1003.7
20260902194325 58 22 5.0 10.0 0.00 0.00 0.00 94 1003.8
20260902193825 58 48 9.0 12.0 0.00 0.00 0.00 94 1004.0
20260902193324 58 84 10.0 12.0 0.00 0.00 0.00 94 1004.0
20260902192824 58 67 6.0 12.0 0.00 0.00 0.00 94 1004.1
20260902192325 58 90 12.0 12.0 0.00 0.00 0.00 94 1004.0
20260902191824 58 46 6.0 11.0 0.00 0.00 0.00 94 1003.9
20260902191324 58 22 9.0 10.0 0.00 0.00 0.00 94 1004.0
20260902190824 58 48 5.0 8.0 0.00 0.00 0.00 94 1004.1
20260902190325 58 37 2.0 8.0 0.00 0.00 0.00 95 1004.1
20260902185824 58 36 3.0 9.0 0.00 0.00 0.00 95 1004.2
20260902185325 58 49 7.0 9.0 0.00 0.00 0.00 95 1004.3
20260902184824 58 355 9.0 9.0 0.00 0.00 0.00 95 1004.2
20260902184324 58 5 5.0 9.0 0.00 0.00 0.00 95 1004.2